Zurück zum Katalog

SL-12 R/B(2)

AktivGEO
NORAD 11567·ROCKET BODY·🇷🇺 Russia

Gestartet Mar 26, 1974 von Baikonur Cosmodrome

Loading…

TLE

AktuellSource: Space-Track

Epoche: Sep 14, 2026, 19:07 UTC

1 11567U 74017F   26257.79676770  .00000055  00000-0  00000-0 0  9990
2 11567   0.4914 236.5060 0043280 106.8854 336.6323  1.01004029193580

Verfolge SL-12 R/B(2) in Echtzeit mit AllMySat

Download on the App Store